Location: Pian di Sc�
(43.6333°N, 11.5500°E)
Time: 12:36:04
(UTC+00:00)

SL-16 R/B - Pass Details

Date: 07 August 2020
Orbit: 841 x 849 km, 71.0° (Epoch: 23 September)

Event Time Altitude Azimuth Distance (km) Brightness Sun altitude
Rises 00:16:39 0° 343° (NNW) 3,423 6.2 -28.6°
Reaches altitude 10° 00:19:37 10° 357° (N) 2,483 5.5 -28.5°
Maximum altitude 00:24:10 24° 50° (NE) 1,693 4.3 -28.2°
Drops below altitude 10° 00:28:42 10° 104° (ESE) 2,471 4.7 -28.0°
Enters shadow 00:31:30 - 117° (ESE) 3,364 5.3 -27.8°
